| time (UTC) | temp F | wind direction | speed MPH | gust MPH | rain 1hr in | rain 24hr in | rain mn in | humidity % | barometer mb |
| 20260505124515 | 67 | 277 | 3.0 | 10.0 | 0.00 | 0.00 | 0.00 | 60 | 1011.8 |
| 20260505123010 | 66 | 197 | 2.0 | 7.0 | 0.00 | 0.00 | 0.00 | 62 | 1011.6 |
| 20260505121512 | 65 | 263 | 4.0 | 12.0 | 0.00 | 0.00 | 0.00 | 64 | 1011.6 |
| 20260505120010 | 65 | 175 | 1.0 | 8.0 | 0.00 | 0.00 | 0.00 | 65 | 1011.6 |
| 20260505114510 | 64 | 273 | 1.0 | 8.0 | 0.00 | 0.00 | 0.00 | 67 | 1011.5 |
| 20260505113015 | 63 | 229 | 1.0 | 5.0 | 0.00 | 0.00 | 0.00 | 68 | 1011.3 |
| 20260505111518 | 62 | 194 | 0.0 | 3.0 | 0.00 | 0.00 | 0.00 | 70 | 1011.2 |
| 20260505101519 | 59 | 267 | 0.0 | 4.0 | 0.00 | 0.00 | 0.00 | 73 | 1011.1 |
| 20260505100016 | 59 | 270 | 1.0 | 6.0 | 0.00 | 0.00 | 0.00 | 74 | 1010.9 |
| 20260505094516 | 59 | 269 | 2.0 | 6.0 | 0.00 | 0.00 | 0.00 | 75 | 1010.7 |
| 20260505093018 | 58 | 211 | 0.0 | 3.0 | 0.00 | 0.00 | 0.00 | 75 | 1010.7 |
| 20260505090009 | 58 | 179 | 1.0 | 4.0 | 0.00 | 0.00 | 0.00 | 75 | 1010.6 |
| 20260505084514 | 59 | 268 | 0.0 | 4.0 | 0.00 | 0.00 | 0.00 | 73 | 1010.7 |
| 20260505083017 | 59 | 264 | 1.0 | 4.0 | 0.00 | 0.00 | 0.00 | 72 | 1010.6 |
| 20260505081505 | 60 | 233 | 0.0 | 3.0 | 0.00 | 0.00 | 0.00 | 71 | 1010.7 |
| 20260505080008 | 60 | 256 | 1.0 | 7.0 | 0.00 | 0.00 | 0.00 | 71 | 1010.8 |
| 20260505074514 | 60 | 256 | 2.0 | 7.0 | 0.00 | 0.00 | 0.00 | 71 | 1010.8 |
| 20260505073020 | 60 | 268 | 1.0 | 13.0 | 0.00 | 0.00 | 0.00 | 70 | 1010.7 |
| 20260505071505 | 60 | 277 | 1.0 | 7.0 | 0.00 | 0.00 | 0.00 | 69 | 1010.7 |
| 20260505070016 | 60 | 246 | 2.0 | 7.0 | 0.00 | 0.00 | 0.00 | 70 | 1010.6 |
| 20260505064515 | 59 | 269 | 1.0 | 7.0 | 0.00 | 0.00 | 0.00 | 71 | 1010.5 |
| 20260505063017 | 58 | 266 | 2.0 | 4.0 | 0.00 | 0.00 | 0.00 | 71 | 1010.4 |
| 20260505061515 | 58 | 232 | 0.0 | 4.0 | 0.00 | 0.00 | 0.00 | 70 | 1010.6 |
| 20260505060017 | 59 | 261 | 0.0 | 2.0 | 0.00 | 0.00 | 0.00 | 69 | 1010.6 |
| 20260505054523 | 59 | 261 | 0.0 | 4.0 | 0.00 | 0.00 | 0.00 | 69 | 1010.7 |
| 20260505053022 | 59 | 221 | 0.0 | 2.0 | 0.00 | 0.00 | 0.00 | 69 | 1010.6 |
| 20260505051512 | 59 | 241 | 0.0 | 4.0 | 0.00 | 0.00 | 0.00 | 69 | 1010.8 |
| 20260505040019 | 60 | 203 | 1.0 | 5.0 | 0.00 | 0.00 | 0.00 | 61 | 1010.7 |
| 20260505030021 | 62 | 162 | 1.0 | 4.0 | 0.00 | 0.00 | 0.00 | 53 | 1011.0 |
| 20260505024526 | 62 | 171 | 1.0 | 5.0 | 0.00 | 0.00 | 0.00 | 52 | 1011.1 |
| 20260505023007 | 63 | 153 | 2.0 | 5.0 | 0.00 | 0.00 | 0.00 | 51 | 1011.2 |
| 20260505021514 | 64 | 148 | 1.0 | 6.0 | 0.00 | 0.00 | 0.00 | 50 | 1011.2 |
| 20260505020021 | 64 | 179 | 1.0 | 2.0 | 0.00 | 0.00 | 0.00 | 49 | 1011.0 |
| 20260505014526 | 65 | 184 | 0.0 | 3.0 | 0.00 | 0.00 | 0.00 | 48 | 1011.0 |
| 20260505013011 | 65 | 202 | 0.0 | 8.0 | 0.00 | 0.00 | 0.00 | 48 | 1011.1 |
| 20260505011524 | 65 | 195 | 0.0 | 5.0 | 0.00 | 0.00 | 0.00 | 48 | 1010.8 |
| 20260505010023 | 65 | 208 | 0.0 | 3.0 | 0.00 | 0.00 | 0.00 | 46 | 1010.7 |
| 20260505004533 | 66 | 191 | 0.0 | 0.0 | 0.00 | 0.00 | 0.00 | 45 | 1010.6 |
| 20260505003013 | 67 | 191 | 0.0 | 3.0 | 0.00 | 0.00 | 0.00 | 43 | 1010.4 |
| 20260505001520 | 67 | 232 | 1.0 | 4.0 | 0.00 | 0.00 | 0.00 | 42 | 1010.3 |
| 20260505000030 | 68 | 208 | 2.0 | 8.0 | 0.00 | 0.00 | 0.00 | 40 | 1010.3 |
| 20260504234522 | 69 | 243 | 2.0 | 8.0 | 0.00 | 0.00 | 0.00 | 39 | 1010.1 |
| 20260504233016 | 69 | 215 | 2.0 | 8.0 | 0.00 | 0.00 | 0.00 | 38 | 1010.0 |
| 20260504231524 | 69 | 238 | 3.0 | 14.0 | 0.00 | 0.00 | 0.00 | 38 | 1009.9 |
| 20260504230024 | 70 | 155 | 3.0 | 12.0 | 0.00 | 0.00 | 0.00 | 38 | 1009.8 |
| 20260504224528 | 70 | 273 | 3.0 | 11.0 | 0.00 | 0.00 | 0.00 | 37 | 1009.8 |
| 20260504223014 | 70 | 168 | 1.0 | 10.0 | 0.00 | 0.00 | 0.00 | 38 | 1009.9 |
| 20260504221526 | 71 | 274 | 2.0 | 11.0 | 0.00 | 0.00 | 0.00 | 36 | 1009.9 |
| 20260504214512 | 72 | 179 | 5.0 | 14.0 | 0.00 | 0.00 | 0.00 | 36 | 1010.0 |
| 20260504213040 | 72 | 266 | 3.0 | 11.0 | 0.00 | 0.00 | 0.00 | 35 | 1010.1 |
| 20260504211521 | 72 | 194 | 3.0 | 14.0 | 0.00 | 0.00 | 0.00 | 38 | 1010.1 |
| 20260504210012 | 72 | 200 | 7.0 | 17.0 | 0.00 | 0.00 | 0.00 | 36 | 1010.2 |
| 20260504204517 | 72 | 226 | 4.0 | 11.0 | 0.00 | 0.00 | 0.00 | 35 | 1010.3 |
| 20260504203020 | 72 | 275 | 4.0 | 10.0 | 0.00 | 0.00 | 0.00 | 36 | 1010.1 |
| 20260504201532 | 72 | 186 | 4.0 | 13.0 | 0.00 | 0.00 | 0.00 | 34 | 1010.2 |
| 20260504200015 | 73 | 213 | 5.0 | 11.0 | 0.00 | 0.00 | 0.00 | 35 | 1010.2 |
| 20260504194519 | 72 | 198 | 3.0 | 12.0 | 0.00 | 0.00 | 0.00 | 33 | 1010.4 |
| 20260504193024 | 72 | 228 | 2.0 | 11.0 | 0.00 | 0.00 | 0.00 | 36 | 1010.5 |
| 20260504191523 | 72 | 264 | 4.0 | 12.0 | 0.00 | 0.00 | 0.00 | 37 | 1010.7 |
| 20260504190014 | 72 | 211 | 5.0 | 11.0 | 0.00 | 0.00 | 0.00 | 36 | 1010.8 |
| 20260504184521 | 70 | 212 | 5.0 | 17.0 | 0.00 | 0.00 | 0.00 | 35 | 1011.0 |
| 20260504183027 | 71 | 238 | 5.0 | 15.0 | 0.00 | 0.00 | 0.00 | 37 | 1011.2 |
| 20260504181508 | 70 | 268 | 4.0 | 13.0 | 0.00 | 0.00 | 0.00 | 37 | 1011.4 |
| 20260504180018 | 70 | 194 | 6.0 | 16.0 | 0.00 | 0.00 | 0.00 | 38 | 1011.6 |
| 20260504171518 | 69 | 261 | 3.0 | 14.0 | 0.00 | 0.00 | 0.00 | 41 | 1012.1 |